Retour au catalogue

STARLINK-4370

ActifCommunicationsSSO
NORAD 53231·PAYLOAD·🇺🇸 United States

Lancé Jul 22, 2022 depuis Vandenberg Space Force Base

Loading…

Prochains Passages (prochaines 24 heures)

TLE

FraisSource: CelesTrak SupGP

Époque: Sep 14, 2026, 21:10 UTC

1 53231C 22084AU  26257.88243056 -.00009178  00000+0 -28464-3 0  2578
2 53231  97.2838 313.6833 0001455  87.6161 296.4671 15.33473510    12

Suivez STARLINK-4370 en temps réel avec AllMySat

Download on the App Store